Location: Newark
(58.8333°N, 23.5833°E)
Time: 02:42:48
(UTC+00:00)

A-11 Canister half - Pass Details

Date: 24 November 2019
Orbit: 1515 x 1685 km, 47.2° (Epoch: 06 December)

Event Time Altitude Azimuth Distance (km) Brightness Sun altitude
Rises 18:15:21 0° 260° (W) 4,915 12.5 -33.3°
Reaches altitude 10° 18:18:42 10° 254° (WSW) 3,938 11.7 -33.7°
Maximum altitude 18:27:57 43° 188° (S) 2,246 9.6 -34.8°
Enters shadow 18:28:26 42° 181° (S) 2,252 9.6 -34.9°
Drops below altitude 10° 18:37:11 10° 122° (ESE) 3,931 - -36.0°
Sets 18:40:31 0° 116° (ESE) 4,904 - -36.4°
